Regional Weather Roundup
Issued by NWS

Home | Current Version | Previous Version | Text Only | Print | Product List | Glossary Off
Versions: 1 2 3 4 5 6 7 8 9 10 11 12 13 14 15 16 17 18 19 20 21 22 23 24 25 26 27 28 29 30 31 32 33 34 35 36 37 38 39 40 41 42 43 44 45 46 47 48 49 50

000
ASUS43 KMKX 212100
RWRWI

WISCONSIN REGIONAL WEATHER ROUNDUP
NATIONAL WEATHER SERVICE MILWAUKEE/SULLIVAN WI
400 PM CDT THU AUG 21 2014

NOTE: "FAIR" INDICATES FEW OR NO CLOUDS BELOW 12,000 FEET WITH NO
SIGNIFICANT WEATHER AND/OR OBSTRUCTIONS TO VISIBILITY.

WIZ001-002-006>008-014>016-023>028-212200-
NORTHWEST WISCONSIN

CITY           SKY/WX    TMP DP  RH WIND       PRES   REMARKS
SUPERIOR ARPT  CLOUDY    63  61  93 E13G24    29.87F
ASHLAND        CLOUDY    67  64  90 N7        29.90S
HAYWARD        PTSUNNY   74  68  81 E8        29.87F
SIREN          CLOUDY    74  69  83 E3        29.83F
RICE LAKE      CLOUDY    75  67  76 SE8       29.86S
LADYSMITH      PTSUNNY   78  68  72 SE9       29.89S
EAU CLAIRE     CLOUDY    76  70  82 SE12      29.84R
MENOMONIE      CLOUDY    76  70  81 E7        29.83S
NEW RICHMOND   CLOUDY    73  70  89 E10       29.82F
OSCEOLA        CLOUDY    74  72  93 E8        29.83F
$$

WIZ003>005-009-010-017-018-212200-
NORTH CENTRAL WISCONSIN

CITY           SKY/WX    TMP DP  RH WIND       PRES   REMARKS
WOODRUFF       CLOUDY    72  65  78 SE8       29.93F
RHINELANDER    CLOUDY    67  63  87 SE10      29.95R
EAGLE RIVER    CLOUDY    69  64  83 S8        29.94S
LAND O LAKES   CLOUDY    69  64  83 SE5       29.96S
PHILLIPS       CLOUDY    71  66  84 SE8       29.90F
TOMAHAWK       CLOUDY    69  64  83 SE5       29.94S
MEDFORD        CLOUDY    69  66  93 E7        29.91S
MERRILL        CLOUDY    68  66  92 SE9       29.93S
$$

WIZ029-030-035-036-043>047-212200-
CENTRAL WISCONSIN

CITY           SKY/WX    TMP DP  RH WIND       PRES   REMARKS
WAUSAU         CLOUDY    68  66  93 SE9       29.92S
MOSINEE        CLOUDY    70  70 100 E7        29.93S
MARSHFIELD     CLOUDY    78  68  71 SE7       29.90R HX  80
STEVENS POINT  CLOUDY    70  66  87 E9        29.92F
WAUPACA        CLOUDY    74  71  88 E7        29.91F
WAUTOMA        PTSUNNY   79  70  73 SE8       29.90S HX  81
WISC RAPIDS    CLOUDY    79  69  71 SE5       29.90S HX  81
CAMP DOUGLAS   PTSUNNY   77  73  88 S8        29.89R
$$

WIZ011>013-019>022-031-037>040-048>050-212200-
NORTHEAST WISCONSIN

CITY           SKY/WX    TMP DP  RH WIND       PRES   REMARKS
ANTIGO         CLOUDY    65  64  97 SE9G16    29.96S FOG
STURGEON BAY   CLOUDY    66  61  82 E8        29.95S
GREEN BAY      CLOUDY    68  64  87 SE6       29.94R
MANITOWOC      NOT AVBL
APPLETON       PTSUNNY   73  68  83 E6        29.93F
CLINTONVILLE   CLOUDY    70  64  83 SE8       29.93S
OSHKOSH        PTSUNNY   73  69  87 E9        29.90F
$$

WIZ032>034-041-042-053>061-212200-
SOUTHWEST WISCONSIN

CITY           SKY/WX    TMP DP  RH WIND       PRES   REMARKS
LA CROSSE      MOSUNNY   82  71  69 S14       29.83S HX  86
SPARTA         CLOUDY    78  67  69 S9        29.87R HX  80
VIROQUA        CLOUDY    77  74  89 S8        29.88S
BOSCOBEL       PTSUNNY   82  72  71 VRB6      29.85F HX  87
PRAIRIE DU CHI PTSUNNY   79  71  75 SE5       29.84F HX  82
PLATTEVILLE    FAIR      77  73  88 SE9       29.89S
$$

WIZ056-057-062-063-064-067-068-212200-
SOUTH CENTRAL WISCONSIN

CITY           SKY/WX    TMP DP  RH WIND       PRES   REMARKS
BARABOO/DELLS  CLOUDY    75  69  81 S8        29.90F
LONE ROCK      CLOUDY    81  73  76 SE6       29.87F HX  86
WATERTOWN      CLOUDY    75  72  91 SE6       29.91S
MADISON        CLOUDY    76  71  85 S10       29.90F
MIDDLETON      CLOUDY    77  74  88 S10       29.91S
MONROE         CLOUDY    77  73  88 S15       29.90F
JANESVILLE     PTSUNNY   75  72  88 S12       29.91F
$$

WIZ051-052-058>065-066-070>072-212200-
SOUTHEAST WISCONSIN

CITY           SKY/WX    TMP DP  RH WIND       PRES   REMARKS
MILWAUKEE      CLOUDY    73  70  90 S10       29.93F
WAUKESHA       CLOUDY    72  70  94 SE8       29.93F
MILWAUKEE/TIMM PTSUNNY   73  66  78 S8        29.94F
RACINE         LGT RAIN  75  71  87 S8        29.95F
BURLINGTON     CLOUDY    72  70  95 SE6       29.93F
KENOSHA        CLOUDY    74  72  93 SE7       29.93F
FOND DU LAC    PTSUNNY   77  69  76 MISG      29.90F
SHEBOYGAN      CLOUDY    69  66  90 E5        29.93R
WEST BEND      PTSUNNY   70  66  88 SE5       29.92F
JUNEAU         PTSUNNY   75  46  34 SE9       29.92S
$$

LSZ147-162-212200-
LAKE SUPERIOR

STATION/POSITION TIME  TEMP    WIND        PRES    WAVE
                       AIR SEA DIR/SP/G            HT/PER
                 (UTC) (F)     (DEG/KT/KT) (MB)    (FT/S)
W MID LAKE BUOY  1950   60 59   50/ 12/ 14 1013.2F   1/ 3
PORT WING        2000   65      30/ 14/ 17 1012.2S
SAXON HARBOR     2000   67      50/  3/  7 1012.2
$$

LMZ867-665-643>646-212200-
LAKE MICHIGAN

STATION/POSITION TIME  TEMP    WIND        PRES    WAVE
                       AIR SEA DIR/SP/G            HT/PER
                 (UTC) (F)     (DEG/KT/KT) (MB)    (FT/S)
N MID LAKE BUOY  1950   64 65  100/  4/  6 1014.8R   0
NORTHPORT PIER   2000   66     120/  4/  5 1014.9S
SISTER BAY       2041   71     120/  9/ 11   N/A
KEWAUNEE LAKESHO 2000   65      90/  4/  5 1013.5F
SHEBOYGAN LAKESH 2000   66 65  110/ 12/ 14 1013.2F
ATWATER BUOY     2000   69     200/  4/  4 1015.0F
MILWAUKEE LAKESH 2000   69     190/  5/  6   N/A
S MID LAKE BUOY  1950   69 68  100/  8/ 10 1013.5F   0
KENOSHA   LAKESH 2000   73     210/  4/  9 1014.2R
$$

TC  - TEMPERATURE IN CELSIUS
VSB - VISIBILITY IN STATUTE MILES
WCI - WIND CHILL INDEX
HX  - HEAT INDEX



USA.gov is the U.S. government's official web portal to all federal, state and local government web resources and services.